Find Starlink 4507

NORAD ID: 53403 Int'l Des: 2022-097 Owner: SPXS Country: US Constellation: starlink operational
LEOCIRCULAR

リアルタイム位置

3D地球を読み込み中...

Starlink 4507について

説明を読み込み中...

次回通過

Passes for default location (London). Set your location on the main map for personalized predictions.

高度履歴

Loading altitude history...

軌道要素

1 53403U 22097R 26121.37056178 .00000269 00000-0 34960-4 0 9997
2 53403 53.2176 247.9723 0001207 99.0235 261.0894 15.08838103206468
Epoch: May 1, 2026 • Age: 10 hours

現在のステータス

高度 545.4 km
速度 7.60 km/s
衛星直下点 52.80°N, 154.85°W
打ち上げ日 Aug 10, 2022
運用期間 3.7 years
タイプ internet

技術仕様

分類 Payload
質量 297.00 kg
乾燥質量 275.00 kg
総質量 297.00 kg
長さ 0.20 m
直径 2.80 m
スパン 9.00 m
形状 Box + pan
製造者 SPXS
バスタイプ Starlink
フェーズステータス In Orbit
所有者/国 SPXS/US

Most Searched